Preview of NWS' New Version of Forecast
This preview is not operational and should not be used for support decisions.
Latest weather observations around

Half Moon Bay Airport (KHAF)

Using English Units (Switch to International System of Units)
Date/ Time (PDT) Wind (mph) Vis. (mi) Weather Sky Cond. Temp (°F) Rel. Humidity Wind Chill (°F) Heat Index (°F) Pressure Precip. (in)
Air Dwpt 6 hour Altimeter (inHg) Sea level (inHg) 1 hr 3 hr 6 hr
Max Min
Sep 21 14:40   10 Clear CLR 75 55     50%   75 29.91        
Sep 21 14:35   10 Clear CLR 73 55     53%   73 29.91        
Sep 21 14:20   10 Clear CLR 73 55     53%   73 29.92        
Sep 21 14:15   10 Clear CLR 73 55     53%   73 29.92        
Sep 21 14:00 NNW 11 10 Clear CLR 73 57     57%   73 29.92        
Sep 21 13:55   10 Clear CLR 73 57     57%   73 29.93        
Sep 21 13:35 NNW 11 9 Clear CLR 75 57     54%   75 29.93        
Sep 21 13:20   9 Clear CLR 75 59     57%   75 29.93        
Sep 21 13:15 NW 11 8 Clear CLR 73 59     61%   73 29.93        
Sep 21 13:00 WNW 10 7 Clear CLR 73 59     61%   73 29.94        
Sep 21 12:55 WNW 9 7 Clear CLR 72 59     65%   71 29.94        
Sep 21 12:40 WNW 10 7 Clear CLR 73 59     61%   73 29.94        
Sep 21 12:35 NW 9 7 Clear CLR 73 59     61%   73 29.95        
Sep 21 12:20 W 7 6 Haze CLR 70 59     69%     29.96        
Sep 21 12:15 WNW 5 7 Clear CLR 68 59     73%     29.96        
Sep 21 12:00 NW 8 6 Haze CLR 70 59     69%     29.96        
Sep 21 11:55 NW 7 7 Clear CLR 70 59     69%     29.96        
Sep 21 11:35 WNW 3 7 Clear CLR 70 59     69%     29.96        
Sep 21 11:20 Calm 7 Clear CLR 66 57     73%     29.97        
Sep 21 11:15 W 6 6 Haze CLR 66 57     73%     29.97        
Sep 21 11:00 WSW 7 8 Clear CLR 68 57     68%     29.97        
Sep 21 10:55 WNW 9 9 Clear CLR 68 57     68%     29.97        
Sep 21 10:40 NW 10 8 Clear CLR 68 57     68%     29.97        
Sep 21 10:35 WNW 10 9 Clear CLR 68 55     64%     29.97        
Sep 21 10:20 WNW 8 10 Clear CLR 68 55     64%     29.97        
Sep 21 10:15 WNW 9 9 Clear CLR 68 55     64%     29.97        
Sep 21 09:55 NW 6 9 Clear CLR 66 54     64%     29.97        
Sep 21 09:40 Calm 7 Clear CLR 64 57     77%     29.98        
Sep 21 09:35 Calm 7 Clear CLR 64 57     77%     29.98        
Sep 21 09:20 Calm 6 Haze CLR 63 57     83%     29.98        
Sep 21 09:15 S 3 6 Fog/Mist CLR 63 57     83%     29.98        
Sep 21 09:00 WSW 5 6 Fog/Mist CLR 63 57     83%     29.98        
Sep 21 08:55 SW 5 8 Clear CLR 63 57     83%     29.97        
Sep 21 08:40 N 3 8 Clear CLR 59 57     94%     29.97        
Sep 21 08:35 Calm 9 Clear CLR 59 57     94%     29.97        
Sep 21 08:20 Calm 10 Clear CLR 57 55     94%     29.97        
Sep 21 08:15 Calm 9 Clear CLR 55 54     94%     29.97        
Sep 21 07:55 Calm 9 Clear CLR 54 52     94%     29.97        
Notice The following observation data may not be complete
Sep 21 07:40 NW 3 9 Clear CLR   50      %     29.96        
Notice The following observation data may not be complete
Sep 21 07:35 NNE 3 9 Mostly Clear FEW003   48      %     29.96        
Notice The following observation data may not be complete
Sep 21 07:20 Calm 9 Mostly Cloudy BKN003   46      %     29.96        
Notice The following observation data may not be complete
Sep 21 07:15 Calm 8 Mostly Cloudy BKN003   48      %     29.96        
Notice The following observation data may not be complete
Sep 21 07:00 Calm 10 Cloudy OVC003   46      %     29.96        
Notice The following observation data may not be complete
Sep 21 06:55 Calm 10 Cloudy OVC003   46      %     29.96        
Notice The following observation data may not be complete
Sep 21 06:40 Calm 10 Cloudy OVC003   48      %     29.96        
Notice The following observation data may not be complete
Sep 21 06:35 Calm 10 Cloudy OVC003   46      %     29.95        
Notice The following observation data may not be complete
Sep 21 06:15 Calm 10 Cloudy OVC003   46      %     29.95        
Notice The following observation data may not be complete
Sep 21 06:00 Calm 10 Cloudy OVC003   48      %     29.95        
Notice The following observation data may not be complete
Sep 21 05:55 Calm 10 Cloudy OVC003   46      %     29.95        
Notice The following observation data may not be complete
Sep 21 05:40 Calm 10 Cloudy OVC003   48      %     29.95        
Notice The following observation data may not be complete
Sep 21 05:35 Calm 10 Cloudy OVC003   48      %     29.95        
Sep 21 05:20 Calm 10 Cloudy OVC003 50 48     94%     29.95        
Sep 21 05:15 Calm 10 Cloudy OVC003 50 48     94%     29.95        
Notice The following observation data may not be complete
Sep 21 05:00 Calm 10 Cloudy OVC003   48      %     29.95        
Sep 21 04:55 Calm 10 Cloudy OVC003 50 50     100%     29.94        
Sep 21 04:40 Calm 10 Cloudy OVC003 50 48     94%     29.94        
Sep 21 04:35 Calm 10 Cloudy OVC003 50 48     94%     29.95        
Notice The following observation data may not be complete
Sep 21 04:20 Calm 10 Cloudy OVC003   48      %     29.95        
Sep 21 04:15 Calm 10 Cloudy OVC003 50 48     94%     29.95        
Sep 21 03:55 Calm 10 Cloudy OVC003 50 48     94%     29.95        
Notice The following observation data may not be complete
Sep 21 03:40 Calm 10 Cloudy OVC003   48      %     29.95        
Notice The following observation data may not be complete
Sep 21 03:35 Calm 10 Cloudy OVC003   48      %     29.95        
Notice The following observation data may not be complete
Sep 21 03:20 Calm 10 Cloudy OVC003   48      %     29.95        
Notice The following observation data may not be complete
Sep 21 03:15 Calm 10 Cloudy OVC003   48      %     29.95        
Sep 21 03:00 Calm 10 Cloudy OVC003 52 50     94%     29.95        
Notice The following observation data may not be complete
Sep 21 02:55 Calm 10 Cloudy OVC003   50      %     29.95        
Notice The following observation data may not be complete
Sep 21 02:40 Calm 10 Cloudy OVC003   48      %     29.96        
Notice The following observation data may not be complete
Sep 21 02:35 Calm 10 Cloudy OVC003   48      %     29.96        
Notice The following observation data may not be complete
Sep 21 02:15 Calm 10 Cloudy OVC003   50      %     29.96        
Notice The following observation data may not be complete
Sep 21 02:00 Calm 10 Cloudy OVC003   50      %     29.95        
Notice The following observation data may not be complete
Sep 21 01:55 Calm 10 Cloudy OVC003   48      %     29.95        
Notice The following observation data may not be complete
Sep 21 01:40 Calm 10 Cloudy OVC003   50      %     29.95        
Notice The following observation data may not be complete
Sep 21 01:35 Calm 10 Cloudy OVC003   50      %     29.95        
Sep 21 01:20 Calm 10 Cloudy OVC003 52 50     94%     29.95        
Sep 21 01:15 ENE 3 10 Cloudy OVC004 52 50     94%     29.95        
Notice The following observation data may not be complete
Sep 21 01:00 Calm 10 Mostly Cloudy BKN004   48      %     29.95        
Notice The following observation data may not be complete
Sep 21 00:55 Calm 10 Mostly Cloudy BKN004   50      %     29.95        
Notice The following observation data may not be complete
Sep 21 00:40 Calm 10 Mostly Clear FEW003   48      %     29.95        
Notice The following observation data may not be complete
Sep 21 00:35 Calm 10 Mostly Clear FEW003   50      %     29.95        
Notice The following observation data may not be complete
Sep 21 00:15 Calm 10 Mostly Cloudy BKN003   50      %     29.94        
Notice The following observation data may not be complete
Sep 21 00:00 Calm 10 Mostly Cloudy BKN003   50      %     29.94        
Sep 20 23:55 Calm 10 Partly Cloudy SCT003 54 50     88%     29.94        
Notice The following observation data may not be complete
Sep 20 23:40 Calm 10 Clear CLR   50      %     29.94        
Notice The following observation data may not be complete
Sep 20 23:35 Calm 10 Clear CLR   50      %     29.94        
Sep 20 23:20 Calm 10 Clear CLR 54 52     94%     29.94        
Sep 20 23:15 Calm 10 Clear CLR 54 52     94%     29.94        
Sep 20 23:00 Calm 10 Clear CLR 54 50     88%     29.94        
Sep 20 22:55 Calm 10 Clear CLR 54 50     88%     29.94        
Sep 20 22:35 Calm 10 Clear CLR 54 50     88%     29.94        
Sep 20 22:20 Calm 10 Clear CLR 54 50     88%     29.94        
Sep 20 22:15 Calm 10 Clear CLR 54 50     88%     29.95        
Sep 20 22:00 Calm 10 Partly Cloudy SCT003 55 52     88%     29.95        
Sep 20 21:55 Calm 10 Mostly Cloudy BKN003 55 52     88%     29.95        
Sep 20 21:40 Calm 10 Cloudy OVC003 55 52     88%     29.95        
Sep 20 21:35 Calm 10 Cloudy OVC003 55 52     88%     29.95        
Sep 20 21:20 Calm 10 Mostly Cloudy BKN003 55 54     94%     29.94        
Sep 20 21:15 Calm 10 Mostly Cloudy BKN003 55 54     94%     29.95        
Sep 20 21:00 Calm 10 Mostly Clear FEW003 55 54     94%     29.94        
Sep 20 20:55 Calm 10 Mostly Clear FEW003 57 54     88%     29.94        
Sep 20 20:35 Calm 10 Partly Cloudy SCT003 57 55     94%     29.94        
Sep 20 20:20 Calm 10 Mostly Cloudy BKN003 57 55     94%     29.94        
Sep 20 20:15 S 3 9 Partly Cloudy SCT003 57 55     94%     29.93        
Sep 20 20:00 Calm 10 Mostly Clear FEW003 59 57     94%     29.94        
Sep 20 19:55 Calm 9 Mostly Clear FEW003 59 55     88%     29.94        
Sep 20 19:40 S 3 9 Mostly Clear FEW003 59 57     94%     29.93        
Sep 20 19:35 S 3 8 Mostly Clear FEW003 59 55     88%     29.93        
Sep 20 19:20 SE 7 7 Mostly Clear FEW003 61 55     82%     29.93        
Sep 20 19:15 SE 5 6 Haze CLR 63 55     77%     29.93        
Sep 20 19:00 WNW 5 10 Clear CLR 64 55     73%     29.93        
Sep 20 18:55 WNW 5 10 Clear CLR 64 55     73%     29.93        
Sep 20 18:35 NNW 9 9 Clear CLR 66 55     68%     29.92        
Sep 20 18:20 NNW 9 10 Clear CLR 68 55     64%     29.93        
Sep 20 18:15 NNW 9 10 Clear CLR 70 54     56%     29.93        
Sep 20 18:00 NNW 8 10 Clear CLR 70 54     56%     29.92        
Sep 20 17:55 NNW 7 10 Clear CLR 68 54     60%     29.92        
Sep 20 17:40 NNW 9 10 Clear   68 54     60%     29.93        
Notice The following observation data may not be complete
Sep 20 17:35 NNW 9 10 Clear            %     29.92        
Sep 20 17:20 NNW 11 10 Clear   68 54     60%     29.93        
Sep 20 17:15 NNW 11 10 Clear   70 54     56%     29.93        
Sep 20 17:00 NNW 10 10 Clear   68 55     64%     29.93        
Sep 20 16:55 NNW 9 10 Clear   68 55     64%     29.93        
Notice The following observation data may not be complete
Sep 20 16:35 NNW 13 10 Clear CLR          %     29.93        
Sep 20 16:15 NNW 11 10 Clear CLR 70 55     60%     29.94        
Sep 20 16:00 NNW 11 10 Clear CLR 70 55     60%     29.94        
Sep 20 15:55 NNW 13 10 Clear CLR 70 55     60%     29.94        
Sep 20 15:40 NNW 13 10 Clear   70 55     60%     29.94        
Sep 20 15:35 NNW 13 10 Clear   70 55     60%     29.95        
Sep 20 15:20 NNW 14 10 Clear   68 57     68%     29.95        
Sep 20 15:15 NW 14 10 Clear   68 57     68%     29.95        
Sep 20 15:00 NW 13 10 Clear   70 55     60%     29.95        
Sep 20 14:55 NW 15 10 Clear CLR 70 55     60%     29.95        
Sep 20 14:40 NW 14 10 Clear CLR 68 55     64%     29.95        
Sep 20 14:35 NW 14 10 Clear CLR 70 55     60%     29.96        
Sep 20 14:15 NW 13 10 Clear CLR 68 55     64%     29.96        
Sep 20 14:00 NW 11 10 Clear CLR 68 55     64%     29.97        
Sep 20 13:55 NW 11 10 Clear CLR 68 55     64%     29.97        
Sep 20 13:40 NW 10 9 Clear CLR 68 55     64%     29.97        
Sep 20 13:35 NW 10 9 Clear CLR 68 55     64%     29.97        
Sep 20 13:20 NW 9 10 Clear CLR 68 55     64%     29.98        
Sep 20 13:15 NW 7 10 Clear CLR 68 55     64%     29.98        
Sep 20 13:00 NW 8 10 Clear CLR 68 55     64%     29.98        
Sep 20 12:55 WNW 8 10 Clear CLR 68 55     64%     29.98        
Sep 20 12:40 NW 10 9 Clear CLR 68 55     64%     29.98        
Sep 20 12:35 NW 10 9 Clear CLR 68 55     64%     29.98        
Sep 20 12:15 NW 7 9 Clear CLR 68 55     64%     29.98        
Sep 20 12:00 WNW 7 7 Clear CLR 66 57     73%     29.99        
Sep 20 11:55 W 8 7 Clear CLR 66 57     73%     29.99        
Sep 20 11:40 W 7 8 Clear CLR 64 57     77%     29.99        
Sep 20 11:35 W 7 8 Clear CLR 64 57     77%     29.98        
Sep 20 11:20 WNW 7 7 Clear CLR 64 57     77%     29.98        
Sep 20 11:15 WNW 6 7 Clear CLR 64 57     77%     29.98        
Sep 20 11:00 W 3 7 Clear CLR 64 57     77%     29.99        
Sep 20 10:55 NW 3 7 Clear CLR 64 57     77%     29.99        
Sep 20 10:35 W 7 7 Clear CLR 64 57     77%     29.99        
Sep 20 10:20 W 5 7 Clear CLR 63 57     83%     29.99        
Sep 20 10:15 W 5 7 Clear CLR 63 57     83%     29.99        
Sep 20 10:00 Calm 7 Clear CLR 63 57     83%     29.99        
Sep 20 09:55 W 5 6 Haze CLR 63 57     83%     29.99        
Sep 20 09:40 Calm 5 Fog/Mist CLR 61 57     88%     29.98        
Sep 20 09:35 WSW 3 5 Fog/Mist CLR 61 57     88%     29.98        
Sep 20 09:20 W 3 7 Clear CLR 61 55     82%     29.98        
Sep 20 09:15 Calm 8 Clear CLR 63 57     83%     29.97        
Sep 20 09:00 Calm 7 Clear CLR 59 55     88%     29.97        
Sep 20 08:55 Calm 7 Clear CLR 59 55     88%     29.97        
Sep 20 08:35 Calm 8 Clear   57 55     94%     29.97        
Sep 20 08:20   8 Clear   55 54     94%              
Sep 20 08:15 Calm 9 Clear CLR 55 54     94%     29.97        
Sep 20 08:00 Calm 8 Clear CLR 52 50     94%     29.97        
Sep 20 07:55 Calm 9 Clear CLR 52 50     94%     29.96        
Notice The following observation data may not be complete
Sep 20 07:40 Calm 10 Clear CLR   48      %     29.96        
Notice The following observation data may not be complete
Sep 20 07:35 Calm 10 Clear CLR   46      %     29.96        
Notice The following observation data may not be complete
Sep 20 07:20 Calm 10 Partly Cloudy SCT003   46      %     29.96        
Notice The following observation data may not be complete
Sep 20 07:15 Calm 10 Partly Cloudy SCT003   46      %     29.96        
Notice The following observation data may not be complete
Sep 20 06:55 Calm 10 Cloudy OVC003   48      %     29.96        
Notice The following observation data may not be complete
Sep 20 06:40 Calm 10 Cloudy OVC003   46      %     29.95        
Notice The following observation data may not be complete
Sep 20 06:35 Calm 10 Cloudy OVC003   46      %     29.95        
Notice The following observation data may not be complete
Sep 20 06:20 Calm 10 Cloudy OVC003   46      %     29.95        
Notice The following observation data may not be complete
Sep 20 06:15 Calm 9 Cloudy OVC003   46      %     29.95        
Notice The following observation data may not be complete
Sep 20 06:00 Calm 10 Cloudy OVC003   46      %     29.95        
Notice The following observation data may not be complete
Sep 20 05:55 Calm 10 Cloudy OVC003   46      %     29.95        
Notice The following observation data may not be complete
Sep 20 05:40 Calm 10 Cloudy OVC003   46      %     29.95        
Sep 20 05:35 Calm 9 Cloudy OVC003 48 46     93%     29.95        
Sep 20 05:15 Calm 10 Mostly Cloudy BKN003 48 46     93%     29.94        
Sep 20 05:00 Calm 10 Cloudy OVC003 48 46     93%     29.93        
Sep 20 04:55 Calm 10 Cloudy OVC003 48 46     93%     29.93        
Sep 20 04:40 Calm 9 Mostly Cloudy BKN003 48 48     100%     29.93        
Sep 20 04:35 ENE 3 3 Fog/Mist BKN003 50 48     94%     29.93        
Notice The following observation data may not be complete
Sep 20 04:20 Calm 8 Partly Cloudy SCT003   46      %     29.93        
Notice The following observation data may not be complete
Sep 20 04:15 Calm 9 Partly Cloudy SCT003   48      %     29.93        
Notice The following observation data may not be complete
Sep 20 04:00 Calm 10 Mostly Cloudy BKN003   46      %     29.94        
Notice The following observation data may not be complete
Sep 20 03:55 Calm 10 Mostly Cloudy BKN003   46      %     29.94        
Sep 20 03:35 Calm 9 Cloudy OVC003 50 48     94%     29.94        
Notice The following observation data may not be complete
Sep 20 03:20 Calm 10 Cloudy OVC003   46      %     29.94        
Notice The following observation data may not be complete
Sep 20 03:15 Calm 9 Cloudy OVC003   46      %     29.94        
Notice The following observation data may not be complete
Sep 20 03:00 Calm 9 Cloudy OVC003   46      %     29.94        
Notice The following observation data may not be complete
Sep 20 02:55 Calm 9 Cloudy OVC003   46      %     29.94        
Notice The following observation data may not be complete
Sep 20 02:40 Calm 9 Cloudy OVC003   46      %     29.95        
Notice The following observation data may not be complete
Sep 20 02:35 Calm 10 Mostly Cloudy BKN003   48      %     29.95        
Notice The following observation data may not be complete
Sep 20 02:20 Calm 9 Partly Cloudy SCT003   48      %     29.95        
Notice The following observation data may not be complete
Sep 20 02:15 Calm 10 Partly Cloudy SCT003   48      %     29.95        
Sep 20 01:55 Calm 10 Clear CLR 50 48     94%     29.95        
Sep 20 01:40 Calm 10 Clear CLR 50 48     94%     29.95        
Sep 20 01:35 NE 3 10 Clear CLR 50 48     94%     29.95        
Sep 20 01:20 Calm 10 Clear CLR 50 48     94%     29.95        
Sep 20 01:15 Calm 10 Clear CLR 50 48     94%     29.95        
Sep 20 01:00 Calm 10 Clear CLR 52 48     87%     29.95        
Sep 20 00:55 E 3 10 Clear CLR 50 48     94%     29.95        
Sep 20 00:40 Calm 10 Clear CLR 52 48     87%     29.95        
Sep 20 00:35 Calm 10 Clear CLR 52 48     87%     29.95        
Sep 20 00:20 Calm 10 Clear CLR 52 48     87%     29.94        
Sep 20 00:15 NE 3 10 Clear CLR 54 50     88%     29.94        
Sep 20 00:00 Calm 10 Clear CLR 54 50     88%     29.94        
Sep 19 23:55 Calm 10 Clear CLR 55 52     88%     29.94        
Sep 19 23:40 ENE 3 9 Clear CLR 55 52     88%     29.94        
Sep 19 23:35 NE 3 9 Clear CLR 57 52     82%     29.94        
Sep 19 23:00 NE 3 8 Clear CLR 59 55     88%     29.94        
Sep 19 22:55 N 3 9 Clear CLR 59 54     82%     29.94        
Sep 19 22:40 NNW 3 9 Clear CLR 59 55     88%     29.95        
Sep 19 22:35 Calm 9 Clear CLR 57 54     88%     29.95        
Sep 19 22:20 Calm 10 Clear CLR 59 55     88%     29.94        
Sep 19 22:15 NNW 5 9 Clear CLR 59 54     82%     29.94        
Sep 19 22:00 Calm 10 Clear CLR 59 55     88%     29.94        
Sep 19 21:55 Calm 10 Clear CLR 59 54     82%     29.94        
Sep 19 21:40 NNW 3 10 Clear CLR 59 54     82%     29.94        
Sep 19 21:35 NNW 5 10 Clear CLR 59 54     82%     29.94        
Sep 19 21:15 Calm 10 Clear CLR 59 54     82%     29.94        
Sep 19 21:00 NNW 9 10 Clear CLR 63 52     68%     29.93        
Sep 19 20:55 NNW 9 10 Clear CLR 63 50     63%     29.93        
Sep 19 20:40 N 9 10 Clear CLR 61 54     77%     29.93        
Sep 19 20:35 NNW 11 10 Clear CLR 61 54     77%     29.93        
Sep 19 20:20 NNW 11 10 Clear CLR 61 54     77%     29.93        
Sep 19 20:15 NNW 9 10 Clear CLR 61 54     77%     29.93        
Sep 19 20:00 NNW 8 10 Clear CLR 63 52     68%     29.93        
Sep 19 19:55 NNW 9 10 Clear CLR 63 52     68%     29.93        
Sep 19 19:35 NNW 10 10 Clear CLR 63 54     72%     29.93        
Sep 19 19:20 NNW 10 9 Clear CLR 63 54     72%     29.93        
Sep 19 19:15 NNW 11 10 Clear CLR 63 54     72%     29.93        
Sep 19 19:00 NNW 11 9 Clear CLR 63 54     72%     29.93        
Sep 19 18:55 NNW 14 9 Clear CLR 63 54     72%     29.93        
Sep 19 18:40 NNW 15 9 Clear CLR 63 54     72%     29.93        
Sep 19 18:35 NNW 14 10 Clear CLR 63 54     72%     29.93        
Sep 19 18:20 NNW 15 10 Clear CLR 64 54     68%     29.93        
Sep 19 18:15 NNW 14 9 Clear CLR 64 54     68%     29.93        
Sep 19 18:00   10 Clear CLR 64 54     68%     29.93        
Sep 19 17:55 NNW 15 10 Clear CLR 64 55     73%     29.93        
Sep 19 17:35 NNW 13 10 Clear CLR 64 55     73%     29.94        
Sep 19 17:20   10 Clear CLR 66 55     68%              
Sep 19 17:15 N 14 10 Clear CLR 66 55     68%     29.94        
Sep 19 17:00 NNW 14 9 Clear CLR 64 55     73%     29.94        
Sep 19 16:55 NNW 17 10 Clear CLR 66 55     68%     29.94        
Sep 19 16:40 NNW 15 9 Clear CLR 66 55     68%     29.94        
Sep 19 16:35 NNW 14 10 Clear CLR 66 55     68%     29.94        
Sep 19 16:20 N 14 10 Clear CLR 66 55     68%     29.95        
Sep 19 16:15 NNW 15 9 Clear CLR 66 55     68%     29.95        
Sep 19 15:55 NNW 16 10 Clear CLR 64 55     73%     29.95        
Sep 19 15:40 NNW 16 10 Clear CLR 66 55     68%     29.95        
Sep 19 15:35 NW 16 10 Clear CLR 66 55     68%     29.95        
Sep 19 15:20 NW 14 10 Clear CLR 66 54     64%     29.95        
Sep 19 15:15 NNW 13 10 Clear CLR 66 54     64%     29.95        
Sep 19 15:00 NNW 15 10 Clear CLR 66 55     68%     29.95        
Sep 19 14:55 NW 15 10 Clear CLR 66 55     68%     29.96        
Sep 19 14:40 NNW 14 10 Clear CLR 66 54     64%     29.96        
Sep 19 14:35 NNW 15 10 Clear CLR 66 54     64%     29.96        
Sep 19 14:20 NW 10 10 Clear CLR 66 55     68%     29.96        
Sep 19 14:15 NNW 9 10 Clear CLR 66 55     68%     29.96        
Sep 19 13:55 NNW 11 8 Clear CLR 64 57     77%     29.96        
Sep 19 13:40 NW 13 9 Clear CLR 64 55     73%     29.97        
Sep 19 13:35 NW 13 8 Clear CLR 64 55     73%     29.97        
Sep 19 13:20 NW 14 10 Clear CLR 64 55     73%     29.97        
Sep 19 13:15 NW 14 10 Clear CLR 64 55     73%     29.97        
Sep 19 13:00 NW 14 9 Clear CLR 64 55     73%     29.98        
Sep 19 12:55 NW 13 10 Clear CLR 64 55     73%     29.98        
Sep 19 12:40 NW 11 10 Clear CLR 64 55     73%     29.98        
Sep 19 12:35 NW 13 10 Clear CLR 64 55     73%     29.98        
Sep 19 12:15 NW 10 10 Clear CLR 63 55     77%     29.99        
Sep 19 12:00 NW 11 9 Clear CLR 64 55     73%     29.99        
Sep 19 11:55 NW 10 9 Clear CLR 64 55     73%     29.98        
Sep 19 11:40 NW 9 8 Clear CLR 63 55     77%     29.98        
Sep 19 11:35 NW 9 9 Clear CLR 63 55     77%     29.99        
Sep 19 11:20 NNW 11 10 Clear CLR 63 55     77%     29.99        
Sep 19 11:15 NNW 11 10 Clear CLR 63 55     77%     29.99        
Notice The following observation data may not be complete
Sep 19 11:00   8 Clear            %     29.98        
Sep 19 10:55 NW 11 9 Clear CLR 63 55     77%     29.99        
Sep 19 10:40 NW 11 8 Clear CLR 63 55     77%     29.99        
Sep 19 10:35 NW 11 9 Clear CLR 63 55     77%     29.99        
Sep 19 10:20 NW 10 8 Clear CLR 63 57     83%     29.99        
Sep 19 10:15 NNW 9 8 Clear CLR 63 55     77%     29.99        
Sep 19 09:55 NNW 8 9 Clear CLR 63 57     83%     29.99        
Sep 19 09:40 N 9 7 Clear CLR 61 55     82%     29.98        
Sep 19 09:35 NNW 10 8 Clear CLR 61 57     88%     29.98        
Sep 19 09:20 NNW 9 8 Clear CLR 61 57     88%     29.98        
Sep 19 09:15 NNW 9 8 Clear CLR 59 57     94%     29.98        
Sep 19 09:00 N 9 7 Clear CLR 59 57     94%     29.98        
Sep 19 08:55 NNW 9 7 Clear CLR 59 57     94%     29.98        
Sep 19 08:40 NNW 7 6 Fog/Mist CLR 59 57     94%     29.98        
Sep 19 08:35 NNW 8 5 Fog/Mist CLR 59 57     94%     29.98        
Sep 19 08:20 NNW 10 6 Fog/Mist CLR 59 57     94%     29.97        
Sep 19 08:15 NNW 9 5 Fog/Mist CLR 59 57     94%     29.98        
Notice The following observation data may not be complete
Sep 19 08:00   5 Fog/Mist FEW003          %              
Sep 19 07:55 NNW 9 5 Fog/Mist FEW003 57 55     94%     29.97        
Sep 19 07:35 NNW 8 5 Fog/Mist FEW003 FEW008 57 55     94%     29.97        
Sep 19 07:20 NNW 8 5 Fog/Mist SCT008 57 55     94%     29.96        
Sep 19 07:15 NNW 8 5 Fog/Mist BKN008 57 55     94%     29.96        
Sep 19 07:00 N 9 5 Fog/Mist BKN008 57 55     94%     29.96        
Sep 19 06:55 NNW 8 6 Fog/Mist BKN008 57 55     94%     29.96        
Sep 19 06:40 NNW 9 7 Mostly Cloudy BKN010 57 55     94%     29.95        
Sep 19 06:35 NNW 9 7 Mostly Cloudy BKN010 57 55     94%     29.95        
Sep 19 06:20 NNW 8 7 Partly Cloudy SCT012 57 55     94%     29.95        
Sep 19 06:15 NNW 8 7 Mostly Cloudy BKN012 57 55     94%     29.95        
Sep 19 06:00 NNW 7 7 Partly Cloudy SCT012 57 55     94%     29.95        
Sep 19 05:55 NNW 6 7 Clear CLR 57 55     94%     29.95        
Sep 19 05:35 NNW 6 8 Mostly Clear FEW006 57 55     94%     29.95        
Sep 19 05:20 N 5 7 Mostly Clear FEW006 57 55     94%     29.95        
Sep 19 05:15 N 6 7 Mostly Clear FEW006 57 55     94%     29.95        
Sep 19 05:00 NNW 10 7 Clear CLR 57 55     94%     29.94        
Sep 19 04:55 NNW 10 7 Clear CLR 57 55     94%     29.94        
Sep 19 04:40 N 8 7 Clear CLR 57 55     94%     29.94        
Sep 19 04:35 N 6 7 Clear CLR 57 55     94%     29.95        
Sep 19 04:20 NNW 8 7 Clear CLR 57 55     94%     29.95        
Sep 19 04:15 NNW 9 7 Clear CLR 59 55     88%     29.95        
Sep 19 04:00 N 11 8 Clear CLR 57 55     94%     29.95        
Sep 19 03:55 NNW 9 8 Clear CLR 59 55     88%     29.95        
Sep 19 03:40 N 8 7 Clear CLR 59 55     88%     29.95        
Sep 19 03:35 N 8 7 Clear CLR 59 55     88%     29.95        
Sep 19 03:20 N 8 8 Clear CLR 59 55     88%     29.95        
Sep 19 03:15 NNW 7 8 Clear CLR 59 55     88%     29.95        
Sep 19 02:55 N 8 8 Clear CLR 59 55     88%     29.95        
Sep 19 02:40 NNW 9 9 Clear CLR 59 55     88%     29.96        
Sep 19 02:35 NNW 9 9 Clear CLR 59 55     88%     29.96        
Sep 19 02:20 N 8 9 Clear CLR 59 55     88%     29.96        
Sep 19 02:15 N 7 9 Clear CLR 59 55     88%     29.96        
Sep 19 02:00 N 8 9 Clear CLR 59 55     88%     29.96        
Sep 19 01:55 N 9 9 Clear CLR 59 55     88%     29.97        
Sep 19 01:40 N 9 9 Mostly Clear FEW014 59 55     88%     29.97        
Sep 19 01:35 N 9 9 Clear CLR 59 55     88%     29.96        
Sep 19 01:20 NNW 10 9 Clear CLR 59 57     94%     29.96        
Sep 19 01:15 NNW 10 9 Clear CLR 59 57     94%     29.96        
Sep 19 01:00 NNW 10 9 Clear CLR 59 55     88%     29.96        
Sep 19 00:55 NNW 9 9 Clear CLR 59 55     88%     29.96        
Sep 19 00:35 NNW 9 9 Clear CLR 59 57     94%     29.96        
Sep 19 00:20 NNW 8 9 Clear CLR 59 57     94%     29.96        
Sep 19 00:15 N 8 9 Clear CLR 59 57     94%     29.96        
Sep 19 00:00 NNW 9 10 Clear CLR 59 57     94%     29.96        
Sep 18 23:55 N 10 10 Clear CLR 59 55     88%     29.96        
Sep 18 23:40 NNW 8 10 Clear CLR 59 55     88%     29.96        
Sep 18 23:35 NNW 9 10 Clear CLR 59 55     88%     29.96        
Sep 18 23:20 NNW 10 10 Clear CLR 59 55     88%     29.95        
Sep 18 23:15 N 8 10 Clear CLR 59 55     88%     29.96        
Sep 18 22:55 N 5 10 Clear CLR 59 55     88%     29.96        
Sep 18 22:40 N 7 10 Clear CLR 59 57     94%     29.96        
Sep 18 22:35 NW 8 9 Clear CLR 59 57     94%     29.97        
Sep 18 22:20 NW 8 8 Clear CLR 59 57     94%     29.97        
Sep 18 22:15 NW 8 8 Clear CLR 59 57     94%     29.97        
Sep 18 22:00 NNW 8 10 Clear CLR 59 57     94%     29.97        
Sep 18 21:55 NNW 8 10 Clear CLR 59 57     94%     29.97        
Sep 18 21:40 NW 8 8 Clear   59 57     94%     29.97        
Sep 18 21:35 NW 8 8 Clear   59 57     94%     29.97        
Notice The following observation data may not be complete
Sep 18 21:20 NNW 6   Clear            %     29.96        
Notice The following observation data may not be complete
Sep 18 21:15     Clear            %              
Sep 18 20:55 NNW 3 9 Clear CLR 59 57     94%     29.97        
Sep 18 20:40 N 5 9 Clear CLR 59 57     94%     29.96        
Sep 18 20:35 NNW 5 7 Clear CLR 59 57     94%     29.96        
Sep 18 20:20 NW 7 7 Mostly Clear FEW024 59 59     100%     29.96        
Sep 18 20:15 NW 7 7 Mostly Clear FEW024 59 59     100%     29.96        
Sep 18 20:00 NNW 6 9 Clear CLR 59 59     100%     29.96        
Sep 18 19:55 NNW 7 10 Clear CLR 59 57     94%     29.96        
Sep 18 19:40 NNW 5 10 Clear CLR 61 57     88%     29.96        
Sep 18 19:35 NNW 5 10 Clear CLR 61 59     94%     29.96        
Sep 18 19:15 NNW 5 10 Clear CLR 63 59     88%     29.96        
Notice The following observation data may not be complete
Sep 18 19:00   10 Clear CLR          %              
Sep 18 18:55 NW 6 10 Clear CLR 63 59     88%     29.96        
Sep 18 18:40 NNW 7 10 Clear CLR 64 59     83%     29.96        
Sep 18 18:35 NNW 6 10 Clear CLR 64 59     83%     29.96        
Sep 18 18:00 NW 8 10 Partly Cloudy SCT017 64 59     83%     29.96        
Sep 18 17:55 NW 9 10 Partly Cloudy SCT019 64 59     83%     29.96        
Sep 18 17:40 NW 7 9 Clear CLR 64 59     83%     29.96        
Sep 18 17:35 WNW 6 10 Clear CLR 64 59     83%     29.96        
Sep 18 17:15 WNW 6 10 Mostly Clear FEW060 64 59     83%     29.96        
Sep 18 17:00 WNW 7 10 Mostly Cloudy BKN050 64 61     88%     29.96        
Sep 18 16:55 WNW 7 10 Mostly Cloudy BKN050 64 61     88%     29.96        
Sep 18 16:40 NW 8 10 Cloudy OVC050 64 59     83%     29.97        
Sep 18 16:35 WNW 7 10 Cloudy OVC050 64 59     83%     29.97        
Sep 18 16:20 W 7 10 Cloudy FEW044 OVC050 64 59     83%     29.97        
Sep 18 16:15 WSW 7 10 Cloudy SCT047 OVC050 64 59     83%     29.96        
Sep 18 16:00 Calm 9 Cloudy OVC045 64 59     83%     29.97        
Sep 18 15:55 S 3 8 Cloudy BKN043 OVC050 64 59     83%     29.97        
Sep 18 15:35 S 5 9 Mostly Cloudy BKN041 63 59     88%     29.97        
Sep 18 15:20 Calm 9 Mostly Cloudy FEW006 SCT014 BKN041 63 59     88%     29.98        
Sep 18 15:15 SE 3 10 Mostly Cloudy FEW006 SCT014 BKN043 63 59     88%     29.98        
Sep 18 15:00 WSW 5 9 Mostly Cloudy SCT005 BKN014 BKN048 63 59     88%     29.98        
Sep 18 14:55 WSW 5 8 Mostly Cloudy SCT005 BKN014 BKN048 63 59     88%     29.98        
Sep 18 14:40 SW 7 5 Fog/Mist BKN005 OVC048 63 59     88%     29.98        
Sep 18 14:35 SW 6 10 Cloudy SCT005 OVC048 64 59     83%     29.98        
Sep 18 14:20 SW 5 6 Fog/Mist BKN005 63 59     88%     29.98        
Sep 18 14:15 SW 6 5 Fog/Mist BKN005 BKN050 63 59     88%     29.99        
Sep 18 13:40 SW 5 10 Cloudy BKN006 OVC026 64 61     88%     29.99        
Sep 18 13:35 Calm 9 Cloudy OVC005 63 59     88%     29.99        
Sep 18 13:00 Calm 9 Cloudy OVC006 61 59     94%     30        
Sep 18 12:55 WSW 3 10 Cloudy OVC006 61 59     94%     30        
Sep 18 12:40 SSE 3 10 Cloudy OVC006 61 59     94%     30        
Sep 18 12:35 SSW 3 9 Cloudy OVC006 61 59     94%     30        
Sep 18 12:15 SSW 7 10 Cloudy OVC006 61 59     94%     30        
Notice The following observation data may not be complete
Sep 18 12:00   7 Mostly Cloudy BKN007          %              
Sep 18 11:55 SW 8 7 Cloudy OVC007 59 59     100%     30        
May 15 10:40 S 6 10 Cloudy OVC028 57 48     72%     30.07        
May 15 02:40 SW 3 10 Cloudy OVC022 54 48     82%     30.01        
May 15 02:15 Calm 10 Cloudy OVC022 54 48     82%     30.02        
Notice The following observation data may not be complete
May 14 20:20   10 Clear            %              
May 14 15:15 SW 8 10 Cloudy OVC024 57 50     77%     30.03        
May 14 09:20 Calm 10 Cloudy OVC016 54 48     82%     30.02        
May 14 04:40 Calm 10 Cloudy OVC016 54 48     82%     30.01        
May 14 03:15 WSW 5 10 Cloudy OVC018 54 48     82%     30.01        
May 13 20:15 S 5 5 Fog/Mist SCT026 54 50     88%     30.02        
May 13 18:00 S 6 5 Fog/Mist OVC024 55 52     88%     30.03        
Notice The following observation data may not be complete
May 13 15:00   6 Haze OVC024          %              
May 13 12:00 S 8 5 Haze OVC027 57 54     88%     30.06        
May 13 11:55 S 10 5 Haze OVC027 57 54     88%     30.06        
May 13 10:15 SSW 10 5 Clear   55 50     82%     30.04        
May 13 07:40 S 9 5 Fog/Mist OVC021 54 50     88%     30.02        
May 13 01:35 S 9 5 Fog/Mist OVC015 54 50     88%     29.99        
May 12 18:35 S 11 5 Fog/Mist OVC011 55 50     82%     29.94        
May 12 18:00 S 10 5 Haze BKN011 55 50     82%     29.94        
May 12 17:35 SSE 10 5 Haze SCT013 55 50     82%     29.94        
May 12 17:15 SSE 10 5 Haze FEW013 57 50     77%     29.94        
May 12 16:15 SSE 14 5 Haze BKN013 57 50     77%     29.95        
May 12 12:00 S 16 7 Clear CLR 57 50     77%     29.95        
May 12 04:55 SE 13 2.5 Fog/Mist OVC002 50 48     94% 45   29.85        
May 12 01:40 Calm 2.5 Clear   46 43     87%     29.82        
May 12 01:00 Calm 3 Fog/Mist OVC002 45 41     87%     29.82        
May 12 00:35 Calm 4 Fog/Mist OVC002 46 43     87%     29.82        
May 11 22:40 Calm 5 Fog/Mist OVC002 48 45     87%     29.83        
May 11 22:20 Calm 5 Fog/Mist OVC003 50 46     87%     29.83        
May 11 21:55 Calm 5 Fog/Mist OVC003 50 46     87%     29.82        
May 11 21:40 Calm 5 Fog/Mist OVC003 50 46     87%     29.82        
May 11 20:35 SSE 6 3 Haze FEW003 54 46     77%     29.8        
May 11 16:55   5 Haze CLR 63 48     59%     29.8        
May 11 13:55 NNW 20 4 Haze CLR 57 50     77%     29.84        
May 11 13:35 NW 20 4 Haze CLR 57 50     77%     29.84        
May 11 10:00 NW 9 4 Haze CLR 55 50     82%     29.89        
May 11 07:00 Calm 5 Fog/Mist CLR 46 45     93%     29.88        
Jun 11 19:35 NW 14 5 Clear   55 50     82%     30        
Jun 11 19:15 NW 16 5 Clear   57 50     77%     30.01        
Jun 11 18:55 NNW 20 7 Clear and Windy   57 50     77%     30.01        
Jun 11 11:15 NW 17 8 Clear CLR 57 50     77%     29.98        
Jun 11 10:35 NW 20 8 Clear and Windy CLR 57 48     72%     29.97        
Notice The following observation data may not be complete
Jun 11 02:35   8 Clear CLR          %              
Jun 11 01:55 NW 17 8 Clear CLR 54 50     88%     29.96        
Jun 10 19:15 WNW 7 7 Partly Cloudy SCT014 59 54     82%     29.98        
Jun 10 15:55 WNW 10 9 Clear   61 52     72%     30        
Jun 10 09:15 NW 9 7 Partly Cloudy SCT010 57 54     88%     30.02        
Notice The following observation data may not be complete
Jun 10 06:35   5 Fog/Mist FEW010 SCT015 BKN021          %              
Jun 10 06:15 NNW 7 6 Fog/Mist FEW010 BKN019 BKN024 54 52     94%     29.99        
Jun 10 02:15 NW 8 7 Cloudy OVC017 54 52     94%     30        
Jun 09 17:35 NW 13 7 Clear CLR 59 54     82%     30        
Notice The following observation data may not be complete
Jun 09 12:15   7 Mostly Clear FEW009          %              
Jun 09 07:15 NW 3 0.75 Fog/Mist OVC003 54 54     100%     29.96        
Jun 08 20:55 SSE 6 1.5 Clear   57 57     100%     30        
Jun 08 17:15 S 9 7 Cloudy OVC011 59 57     94%     30.02        
Jun 08 16:15 S 14 2 Fog/Mist OVC011 59 57     94%     30.02        
Jun 07 22:15 SSE 6 7 Clear CLR 55 54     94%     29.97        
Jun 07 21:15 SSE 7 9 Mostly Cloudy BKN009 57 54     88%     29.95        
Jun 07 13:35 W 9 7 Clear CLR 57 52     82%     29.99        
Notice The following observation data may not be complete
Jun 05 20:35   3 Fog/Mist OVC010          %